Temp
47 47 47 47 47 47 47 47 47 47 47 47 48 47 48 49 49 46 42 44 38 33 36 39 40 36 36 35 31 35 33 34 34 30 30 31 29 33 32 34 31 31 29 29 31 27 25 39 41 37 36 38 39 38
45 46 46 46 47 47 47 47 47 47 47 47 47 47 48 48 49 48 40 43 43 36 36 41 41 43 42 42 37 37 35 34 35 31 32 33 31 31 31 29 37 30 33 31 33 32 37 38 37 39 42 38 37 37
45 45 46 45 46 46 47 47 47 46 47 47 47 47 48 48 49 48 41 42 40 35 35 36 37 43 45 43 46 35 36 41 38 40 35 33 29 33 29 32 33 37 37 33 33 35 35 35 37 38 39 36 37 37
45 45 45 46 46 46 46 46 46 46 46 46 47 47 47 48 48 48 41 43 40 36 29 34 43 40 45 45 43 44 43 42 41 40 35 31 29 37 33 35 34 34 35 31 31 33 35 34 34 34 35 36 35 34
45 45 45 45 45 46 46 46 46 46 46 46 47 47 48 48 49 47 43 44 45 38 31 33 38 42 44 42 40 41 40 39 37 34 32 31 36 35 37 37 31 33 28 28 27 31 32 31 32 33 30 31 32 32
44 45 44 44 45 45 46 46 46 46 46 46 46 47 47 48 48 41 33 42 45 44 35 28 38 38 40 40 38 37 38 37 37 35 32 35 37 36 31 30 31 33 32 32 30 33 32 32 32 31 29 30 30 29
44 44 45 43 45 45 45 46 45 45 46 46 47 47 47 47 44 37 36 42 46 44 34 29 30 37 40 38 37 37 39 39 38 36 35 35 37 39 32 29 30 31 31 31 32 34 30 31 29 31 31 31 30 29
44 44 44 44 44 45 45 45 45 45 46 46 46 46 47 47 45 39 43 46 46 39 37 28 28 33 42 35 34 40 36 37 37 37 37 35 38 35 29 28 28 29 31 29 30 34 32 33 32 31 32 31 29 27
44 44 44 44 44 45 45 45 45 45 46 46 46 47 44 40 35 39 46 47 45 39 30 30 26 25 39 36 37 36 37 30 38 34 35 36 31 27 26 27 26 26 25 26 29 31 31 28 28 27 28 28 27 26
44 44 43 44 44 44 45 45 45 45 45 46 43 38 31 35 46 45 37 34 35 36 36 30 34 28 35 33 33 34 35 33 30 33 35 31 24 25 26 26 26 26 26 28 28 25 26 27 26 25 24 25 25 24
44 43 43 44 44 44 45 44 43 44 44 40 32 32 39 46 40 35 30 31 31 29 33 34 33 31 37 31 32 35 31 33 28 31 31 26 22 23 25 24 25 26 25 24 25 25 26 25 25 25 23 22 22 21
43 44 44 44 44 44 42 42 42 41 41 38 40 42 40 36 33 30 28 30 29 27 30 31 33 37 36 36 32 32 31 31 27 32 27 20 20 24 24 23 23 24 23 22 22 21 21 22 22 22 21 19 18 17
43 44 44 44 42 42 42 44 45 45 44 43 37 33 33 28 27 23 21 26 26 28 31 33 32 34 35 35 32 32 29 28 32 23 17 18 22 24 24 23 22 22 21 20 19 19 17 15 15 16 13 13 13 12
42 42 42 42 42 43 44 46 46 42 37 31 29 21 25 20 19 20 24 28 29 31 33 34 31 33 33 31 29 27 28 31 22 18 14 19 20 21 22 22 19 15 15 14 12 13 12 11 10 11 10 11 10 10
40 41 42 43 44 44 42 42 41 37 32 26 27 17 14 19 21 22 26 29 29 31 33 31 30 31 26 26 23 25 22 15 16 14 15 20 20 20 19 18 16 13 11 10 11 10 9 10 10 10 10 11 11 10
42 42 42 44 44 44 44 42 38 35 30 25 21 19 21 19 19 23 24 26 28 29 32 31 25 22 19 19 18 12 17 14 12 15 19 20 17 16 15 15 13 12 11 11 11 11 10 9 10 10 10 9 8 8
42 39 44 44 45 44 44 36 33 29 25 21 17 18 15 14 16 20 22 23 28 28 23 25 20 17 22 15 12 13 11 12 14 17 18 18 16 14 13 14 13 13 13 13 13 13 12 13 13 13 11 12 12 11
38 41 46 46 43 41 36 33 29 26 19 19 14 15 15 15 16 19 22 25 27 25 24 19 24 14 10 12 11 12 15 17 18 17 17 18 18 17 17 15 13 15 14 14 14 14 13 13 13 13 13 13 13 13
40 41 44 45 42 34 30 30 31 20 20 20 21 22 20 19 22 22 23 25 26 27 23 19 12 11 11 12 11 11 15 17 17 17 17 16 15 14 14 14 15 15 15 15 16 16 16 16 16 16 16 15 13 14
43 43 44 44 42 32 29 28 32 25 19 20 22 20 20 19 21 20 21 23 23 21 15 12 12 13 16 16 18 19 17 19 18 15 15 15 15 15 16 18 18 17 18 18 18 17 18 17 18 18 17 17 15 13
42 40 41 38 33 32 30 28 25 26 24 21 23 24 19 22 19 17 18 22 16 13 12 14 13 15 17 13 15 18 17 20 18 19 17 16 16 19 18 19 20 20 19 18 18 17 17 17 18 17 16 13 12 13
37 42 35 36 32 31 28 28 26 27 25 24 24 24 17 14 13 15 19 14 12 13 14 15 14 16 15 16 16 16 15 17 17 17 15 17 17 17 17 18 19 17 17 17 18 16 16 16 15 14 12 10 11 12
39 36 31 31 25 24 22 30 23 26 19 22 23 18 14 13 17 21 10 14 14 14 15 15 13 15 15 16 17 17 17 17 16 16 16 15 16 16 17 17 18 16 15 16 18 17 15 13 10 11 11 11 11 9
34 24 19 17 21 17 19 17 26 23 20 17 16 11 12 13 16 10 7 9 13 18 16 14 16 15 17 16 14 14 14 16 15 14 15 16 15 14 16 16 16 16 16 16 14 13 12 11 7 10 8 7 6 7
22 16 16 9 16 13 9 7 10 15 6 8 10 8 9 15 7 4 8 9 13 13 14 16 17 16 13 10 12 13 15 17 16 13 13 16 13 13 12 12 11 12 13 13 10 9 6 7 8 8 6 7 8 6
10 10 12 8 10 13 12 7 4 5 6 3 5 8 8 6 4 4 10 9 9 11 10 12 12 13 13 15 13 14 14 16 16 13 11 13 13 12 11 10 10 10 9 8 8 8 6 4 6 7 7 6 4 7
6 5 15 20 19 17 9 9 14 8 2 3 5 0 4 2 1 7 10 12 14 13 16 16 18 17 15 12 12 11 12 13 13 12 10 10 10 10 11 10 9 10 8 7 6 8 8 6 4 3 4 2 3 5
9 11 7 4 5 10 1 -0 -1 1 2 11 8 -0 4 5 6 11 13 11 13 17 15 14 15 15 14 11 9 8 6 7 6 7 9 9 6 4 3 4 4 2 2 2 4 3 5 6 5 3 3 6 3 -2
4 8 9 -2 1 3 3 -0 3 9 11 7 0 1 4 10 8 10 11 13 15 15 11 8 3 5 4 3 1 5 7 8 7 1 1 3 3 7 1 1 2 2 2 7 6 4 3 2 2 3 3 4 1 -4
4 9 1 -6 -5 -1 1 4 5 4 8 8 10 11 10 8 8 9 12 12 12 11 8 8 4 7 4 5 2 2 -1 -2 2 6 4 3 4 4 1 2 3 0 0 4 5 4 3 2 2 0 1 0 1 1
7 3 -1 0 -2 1 4 1 -3 -4 -4 -1 -7 1 5 8 12 9 7 2 4 4 4 2 -1 2 3 2 3 2 2 0 -7 -4 -1 -1 -1 1 0 -2 -3 -3 0 1 1 1 -0 -2 -2 -1 0 -1 -3 -2
-3 -8 -2 -3 1 1 2 -4 -8 -5 -6 -1 -2 -7 -1 2 3 8 1 2 5 6 2 7 6 4 1 1 1 -0 -3 1 -4 -4 -3 -2 -0 -4 -4 -5 -7 -4 -2 -2 -2 -3 -4 -3 -3 -3 -2 -3 -5 -6
-10 -11 -9 -5 -2 -1 -2 1 0 -1 -5 -5 -3 -7 -5 1 2 6 4 2 8 10 7 8 5 4 3 2 2 -3 -3 -4 -7 -0 -7 -6 -9 -7 -6 -6 -5 -4 -3 -3 -4 -3 -3 -4 -5 -6 -7 -8 -8 -9
MSLP
1011.73 1012.01 1012.37 1012.98 1013.46 1013.96 1014.42 1014.70 1014.99 1015.25 1015.52 1015.71 1015.80 1015.87 1015.86 1015.83 1015.71 1015.95 1016.29 1016.86 1017.50 1017.63 1017.06 1016.63 1016.43 1016.37 1016.18 1016.08 1016.01 1015.62 1015.33 1015.12 1014.51 1013.98 1013.52 1012.56 1011.93 1011.17 1010.66 1010.09 1010.18 1010.19 1010.16 1010.01 1010.02 1010.01 1009.65 1009.33 1008.65 1008.76 1010.25 1010.61 1010.78 1011.03
1011.24 1011.53 1011.95 1012.40 1012.87 1013.34 1013.83 1014.09 1014.40 1014.65 1014.94 1015.19 1015.34 1015.38 1015.39 1015.38 1015.31 1015.44 1015.76 1016.17 1016.66 1017.15 1016.82 1016.47 1016.18 1015.86 1015.63 1015.47 1015.90 1015.83 1015.76 1015.62 1015.39 1014.98 1014.36 1013.37 1012.47 1011.75 1011.19 1010.47 1010.50 1010.72 1010.91 1010.83 1010.74 1010.73 1010.87 1010.87 1010.80 1010.87 1011.10 1011.67 1012.34 1012.37
1010.77 1011.06 1011.35 1011.84 1012.29 1012.74 1013.14 1013.50 1013.74 1014.04 1014.33 1014.59 1014.73 1014.79 1014.85 1014.84 1014.78 1014.97 1015.17 1015.72 1016.53 1016.80 1016.54 1016.20 1015.26 1014.52 1014.76 1014.99 1015.23 1015.88 1015.61 1015.19 1015.19 1015.24 1014.98 1014.28 1013.12 1012.37 1011.64 1011.28 1011.32 1011.28 1011.54 1011.44 1011.25 1011.42 1011.86 1012.29 1012.53 1012.56 1012.94 1013.19 1013.76 1013.83
1010.12 1010.39 1010.65 1011.02 1011.48 1012.01 1012.46 1012.77 1013.11 1013.44 1013.69 1013.97 1014.11 1014.18 1014.28 1014.33 1014.24 1014.42 1014.79 1015.17 1015.93 1016.33 1016.28 1015.03 1014.47 1014.28 1013.65 1014.08 1014.57 1014.75 1015.08 1015.22 1015.23 1015.17 1015.11 1014.74 1013.89 1012.90 1012.18 1012.01 1011.99 1012.46 1012.33 1012.46 1012.39 1012.63 1012.96 1013.56 1013.99 1014.31 1014.59 1014.66 1014.92 1015.30
1009.45 1009.78 1010.09 1010.40 1010.81 1011.28 1011.71 1012.07 1012.43 1012.79 1013.07 1013.34 1013.45 1013.55 1013.65 1013.70 1013.62 1013.74 1014.27 1014.46 1014.93 1015.58 1015.66 1014.92 1014.25 1013.14 1013.19 1013.47 1014.08 1014.60 1015.06 1015.32 1015.60 1015.60 1015.12 1014.43 1013.46 1013.00 1012.30 1012.18 1012.91 1013.65 1014.01 1013.75 1013.77 1013.85 1014.00 1015.01 1015.52 1015.76 1015.84 1016.20 1016.28 1016.23
1008.75 1009.03 1009.50 1009.70 1010.10 1010.56 1011.03 1011.45 1011.70 1012.18 1012.48 1012.63 1012.73 1012.84 1013.00 1013.06 1013.11 1013.66 1014.35 1014.43 1014.49 1014.99 1015.49 1015.09 1013.87 1013.27 1013.18 1013.48 1013.99 1014.46 1014.82 1015.30 1015.38 1015.18 1014.72 1013.99 1013.48 1012.87 1012.93 1013.27 1014.24 1014.69 1015.13 1015.30 1015.04 1014.92 1014.94 1015.62 1016.09 1016.93 1017.09 1017.26 1017.36 1017.31
1007.94 1008.24 1008.48 1009.03 1009.36 1009.87 1010.37 1010.73 1011.14 1011.48 1011.80 1012.00 1012.06 1012.23 1012.33 1012.32 1012.73 1013.34 1013.28 1013.06 1013.76 1014.85 1015.33 1014.86 1013.95 1013.31 1013.20 1013.66 1014.15 1014.49 1014.66 1014.62 1014.75 1014.63 1014.08 1013.61 1013.14 1013.07 1013.69 1014.40 1015.45 1015.95 1016.16 1016.24 1016.11 1015.96 1015.95 1016.32 1017.07 1017.55 1017.59 1017.73 1017.91 1018.24
1007.07 1007.43 1007.76 1008.18 1008.67 1009.13 1009.62 1010.01 1010.41 1010.72 1011.06 1011.23 1011.39 1011.49 1011.54 1011.65 1012.29 1012.89 1012.81 1013.04 1013.74 1014.61 1014.90 1014.71 1013.90 1013.43 1012.84 1013.15 1013.51 1013.71 1013.92 1014.16 1014.06 1013.84 1013.57 1013.41 1013.42 1013.74 1014.61 1015.88 1016.73 1017.09 1017.19 1017.25 1017.17 1016.84 1016.88 1017.38 1017.74 1017.95 1018.06 1018.12 1018.35 1018.81
1006.24 1006.61 1006.96 1007.33 1007.87 1008.36 1008.79 1009.22 1009.63 1010.05 1010.33 1010.55 1010.63 1010.64 1010.91 1011.49 1012.27 1012.35 1012.61 1013.23 1013.54 1014.18 1014.07 1014.06 1013.61 1013.18 1012.58 1012.60 1012.85 1013.19 1013.38 1013.64 1013.48 1013.30 1013.39 1013.72 1014.20 1015.13 1016.27 1017.04 1017.86 1018.21 1018.22 1018.16 1018.14 1018.07 1018.13 1018.27 1018.68 1018.92 1019.02 1019.09 1019.20 1019.65
1005.41 1005.82 1006.18 1006.65 1007.16 1007.62 1007.97 1008.41 1008.82 1009.26 1009.70 1009.99 1010.27 1010.37 1010.91 1011.46 1011.60 1012.22 1013.57 1013.72 1013.74 1013.62 1013.52 1013.26 1012.87 1012.75 1012.59 1012.05 1012.51 1012.73 1012.78 1012.73 1012.86 1012.93 1013.42 1013.99 1015.44 1017.12 1017.94 1018.53 1019.12 1019.48 1019.58 1019.24 1019.03 1019.20 1019.18 1019.20 1019.66 1019.84 1020.04 1020.38 1020.56 1020.89
1004.63 1005.04 1005.48 1005.96 1006.41 1006.77 1007.13 1007.59 1008.15 1008.64 1009.17 1009.04 1009.57 1010.02 1010.51 1010.76 1011.25 1012.18 1012.85 1013.10 1013.44 1013.37 1012.82 1012.12 1012.07 1012.04 1012.23 1012.21 1012.18 1012.13 1012.27 1012.33 1012.49 1012.70 1013.47 1014.86 1016.37 1017.85 1018.97 1019.56 1020.12 1020.49 1020.77 1020.84 1020.78 1020.78 1020.55 1020.59 1020.66 1020.72 1021.14 1021.62 1022.01 1022.24
1003.92 1004.34 1004.80 1005.19 1005.45 1005.79 1006.24 1006.50 1006.79 1007.29 1007.23 1007.97 1008.48 1009.39 1010.14 1010.50 1011.16 1011.90 1012.31 1012.56 1012.50 1011.96 1011.79 1011.64 1011.57 1011.63 1011.87 1012.03 1012.14 1012.02 1011.73 1012.01 1012.08 1012.87 1014.13 1016.07 1018.02 1019.07 1019.87 1020.61 1021.22 1021.65 1021.85 1021.85 1021.80 1021.90 1021.95 1022.01 1022.11 1022.24 1022.65 1023.00 1023.32 1023.58
1003.29 1003.67 1003.93 1004.22 1004.69 1004.83 1004.92 1004.72 1004.89 1005.53 1006.09 1006.67 1008.16 1009.20 1009.88 1010.75 1011.11 1011.44 1011.59 1011.62 1011.62 1011.30 1011.23 1011.26 1011.31 1011.51 1012.02 1012.14 1012.11 1011.66 1011.73 1012.06 1012.54 1013.92 1016.07 1017.96 1019.19 1020.18 1020.89 1021.59 1022.23 1022.66 1022.82 1022.88 1023.07 1023.25 1023.39 1023.59 1023.59 1023.86 1024.36 1024.78 1024.79 1024.91
1002.74 1003.03 1003.34 1003.48 1003.54 1003.43 1003.54 1003.58 1003.44 1005.29 1005.85 1006.89 1008.39 1010.03 1010.65 1011.54 1011.65 1011.51 1011.11 1010.94 1011.22 1011.05 1010.96 1011.16 1011.62 1011.71 1012.12 1012.45 1012.54 1012.35 1012.88 1012.94 1014.38 1016.27 1017.99 1019.39 1020.45 1021.33 1021.98 1022.51 1022.97 1023.58 1023.93 1024.20 1024.49 1024.54 1024.75 1025.01 1025.20 1025.46 1025.85 1025.96 1025.95 1026.13
1002.16 1002.25 1002.22 1002.37 1002.37 1002.50 1003.39 1004.19 1004.65 1005.64 1006.73 1008.11 1009.02 1011.18 1011.98 1012.41 1012.63 1012.42 1011.97 1011.72 1011.83 1011.54 1011.38 1011.85 1012.29 1012.63 1013.22 1013.61 1014.15 1014.15 1014.60 1015.61 1016.97 1018.46 1019.88 1020.80 1021.63 1022.34 1022.97 1023.48 1024.00 1024.52 1024.97 1025.24 1025.54 1025.87 1026.12 1026.21 1026.45 1026.75 1026.86 1026.83 1026.81 1026.78
1001.14 1001.63 1001.78 1001.99 1002.40 1003.13 1003.92 1004.43 1004.92 1005.72 1007.77 1009.52 1011.16 1012.73 1013.12 1013.25 1013.49 1013.10 1012.94 1012.74 1012.55 1012.22 1012.23 1012.51 1013.24 1013.98 1015.02 1015.52 1015.94 1016.89 1017.35 1018.19 1019.57 1020.55 1021.30 1022.04 1022.81 1023.45 1023.98 1024.46 1025.01 1025.45 1025.82 1026.15 1026.41 1026.62 1026.77 1026.84 1026.95 1027.16 1027.32 1027.38 1027.37 1027.32
1000.91 1001.19 1001.74 1002.30 1002.83 1003.39 1003.81 1004.60 1005.95 1007.87 1009.67 1011.41 1013.15 1013.47 1013.93 1014.34 1014.51 1014.33 1013.99 1013.68 1013.36 1013.17 1013.50 1013.75 1014.53 1015.82 1016.41 1017.37 1018.59 1019.37 1019.84 1020.57 1021.21 1021.88 1022.53 1023.06 1023.66 1024.30 1024.79 1025.13 1025.58 1025.95 1026.22 1026.43 1026.68 1026.90 1027.02 1027.12 1027.20 1027.26 1027.44 1027.72 1027.79 1027.89
1001.38 1002.14 1002.17 1002.39 1002.62 1003.24 1004.61 1005.75 1007.66 1009.52 1011.73 1013.10 1013.90 1014.78 1014.95 1015.17 1015.21 1015.10 1014.81 1014.33 1013.79 1013.99 1014.44 1015.47 1016.15 1017.26 1018.47 1019.30 1020.26 1020.92 1021.28 1021.77 1022.32 1022.81 1023.34 1023.82 1024.27 1024.73 1025.11 1025.49 1025.86 1026.10 1026.27 1026.49 1026.70 1026.89 1027.05 1027.12 1027.20 1027.38 1027.59 1027.77 1027.84 1028.01
1002.10 1002.47 1002.56 1002.65 1002.98 1004.26 1006.23 1007.78 1008.60 1010.88 1012.92 1013.86 1014.60 1014.91 1015.35 1015.80 1016.01 1015.89 1015.52 1015.13 1014.97 1015.00 1015.65 1016.91 1018.16 1019.31 1020.12 1020.75 1021.19 1021.62 1022.01 1022.24 1022.89 1023.51 1024.04 1024.49 1024.72 1025.06 1025.43 1025.74 1025.96 1026.10 1026.25 1026.47 1026.63 1026.82 1027.00 1027.12 1027.27 1027.44 1027.65 1027.84 1027.99 1028.21
1002.67 1002.79 1003.00 1003.16 1003.47 1005.23 1007.45 1009.10 1009.54 1011.15 1013.10 1014.27 1014.82 1015.43 1015.99 1016.44 1016.72 1016.78 1016.52 1016.18 1016.11 1016.62 1017.83 1019.11 1020.21 1020.73 1020.88 1021.30 1021.59 1021.97 1022.42 1022.80 1023.20 1023.84 1024.48 1024.89 1025.14 1025.30 1025.53 1025.63 1025.81 1026.05 1026.27 1026.49 1026.65 1026.87 1026.94 1027.16 1027.33 1027.52 1027.73 1027.91 1028.05 1028.32
1003.22 1003.69 1003.76 1003.89 1005.00 1006.24 1008.39 1009.75 1010.84 1012.03 1013.26 1014.25 1015.09 1015.50 1016.43 1016.80 1017.20 1017.39 1017.48 1017.50 1017.89 1019.31 1020.30 1020.89 1021.39 1021.71 1021.89 1022.14 1022.23 1022.56 1023.09 1023.22 1023.55 1023.90 1024.45 1024.98 1025.32 1025.42 1025.61 1025.73 1025.92 1026.07 1026.28 1026.50 1026.65 1026.88 1027.05 1027.27 1027.50 1027.73 1027.95 1028.28 1028.53 1028.79
1003.81 1003.82 1004.32 1004.61 1006.21 1007.83 1009.41 1010.31 1011.04 1012.05 1013.23 1014.32 1014.99 1015.64 1016.65 1017.45 1017.94 1018.31 1018.57 1018.90 1020.26 1021.12 1021.39 1021.75 1022.20 1022.41 1022.60 1022.87 1023.20 1023.30 1023.63 1023.76 1024.04 1024.42 1024.79 1025.04 1025.44 1025.67 1025.84 1025.94 1026.06 1026.32 1026.55 1026.76 1026.94 1027.23 1027.48 1027.77 1027.99 1028.22 1028.51 1028.92 1029.07 1029.29
1004.02 1004.29 1005.44 1006.44 1008.12 1009.50 1011.34 1011.07 1011.58 1012.53 1013.68 1014.58 1015.19 1016.28 1017.44 1018.08 1018.54 1018.78 1019.86 1020.71 1021.37 1021.84 1021.98 1022.31 1022.69 1022.85 1023.12 1023.58 1023.76 1024.03 1024.25 1024.32 1024.81 1025.18 1025.44 1025.65 1025.85 1026.07 1026.16 1026.35 1026.52 1026.70 1026.95 1027.25 1027.41 1027.64 1027.93 1028.25 1028.50 1028.77 1029.10 1029.42 1029.54 1029.89
1005.00 1006.80 1008.14 1009.27 1009.96 1011.76 1012.05 1012.23 1012.46 1013.38 1014.44 1015.41 1016.30 1017.46 1018.09 1018.61 1019.13 1019.81 1020.85 1021.46 1021.91 1022.07 1022.43 1022.80 1022.93 1023.32 1023.78 1024.12 1024.52 1024.90 1025.08 1025.18 1025.50 1025.95 1026.17 1026.17 1026.47 1026.81 1026.90 1027.06 1027.25 1027.42 1027.54 1027.77 1028.00 1028.26 1028.54 1028.79 1028.99 1029.29 1029.59 1029.84 1030.11 1030.26
1007.13 1010.46 1010.75 1011.57 1011.90 1012.73 1013.47 1014.05 1014.39 1014.93 1016.35 1016.72 1017.52 1018.33 1018.66 1018.98 1019.85 1020.57 1020.93 1021.64 1022.02 1022.39 1022.75 1022.95 1023.20 1023.48 1024.11 1024.86 1025.40 1025.60 1025.67 1025.70 1025.95 1026.47 1026.92 1026.86 1027.19 1027.47 1027.69 1027.90 1028.09 1028.25 1028.33 1028.37 1028.62 1028.82 1029.10 1029.24 1029.43 1029.65 1029.89 1030.10 1030.24 1030.55
1010.35 1012.44 1012.45 1013.05 1013.31 1013.58 1014.60 1015.52 1015.86 1016.41 1016.89 1017.84 1018.44 1018.97 1019.25 1019.64 1020.37 1020.84 1020.82 1021.16 1021.78 1022.30 1022.82 1023.12 1023.51 1024.09 1024.66 1024.99 1025.51 1025.92 1026.11 1026.15 1026.40 1026.89 1027.55 1027.57 1027.63 1027.68 1027.99 1028.25 1028.52 1028.83 1028.96 1028.99 1029.02 1029.19 1029.37 1029.58 1029.70 1029.83 1030.04 1030.27 1030.43 1030.66
1012.64 1013.67 1013.87 1014.15 1014.23 1014.59 1015.73 1016.25 1016.69 1017.03 1017.86 1018.37 1018.86 1019.55 1019.88 1020.55 1020.88 1020.89 1021.02 1021.21 1021.44 1021.88 1022.42 1023.01 1023.31 1023.90 1024.65 1025.47 1026.04 1026.38 1026.60 1026.70 1026.85 1027.33 1027.94 1028.13 1028.26 1028.32 1028.42 1028.68 1028.96 1029.32 1029.37 1029.41 1029.45 1029.32 1029.40 1029.66 1029.90 1030.13 1030.33 1030.53 1030.70 1030.84
1014.23 1014.85 1015.30 1016.32 1016.21 1016.52 1017.18 1017.71 1017.98 1018.32 1018.45 1018.55 1018.94 1019.95 1020.19 1020.26 1020.75 1020.83 1020.94 1021.30 1021.38 1021.95 1022.88 1023.58 1023.94 1024.35 1025.21 1026.01 1026.45 1026.89 1027.54 1027.83 1028.09 1028.35 1028.56 1028.78 1029.00 1029.08 1029.20 1029.37 1029.68 1029.89 1029.97 1029.96 1029.87 1029.67 1029.63 1029.73 1030.00 1030.33 1030.55 1030.70 1030.90 1031.33
1015.85 1016.40 1016.71 1018.28 1018.17 1018.59 1019.16 1019.33 1019.52 1019.41 1019.39 1019.38 1019.78 1020.39 1020.67 1020.85 1021.21 1021.23 1021.38 1021.41 1021.71 1022.33 1023.49 1024.44 1025.59 1025.80 1026.42 1027.07 1027.52 1027.65 1027.82 1028.06 1028.42 1028.84 1028.97 1029.25 1029.58 1029.67 1029.74 1029.88 1030.06 1030.04 1030.11 1030.07 1029.80 1029.88 1029.87 1029.86 1030.30 1030.72 1030.89 1030.93 1031.22 1031.57
1017.66 1017.69 1018.43 1019.42 1020.10 1020.50 1020.60 1020.46 1020.51 1020.56 1020.27 1020.25 1020.22 1020.79 1021.21 1021.56 1021.74 1021.84 1021.92 1022.11 1022.36 1022.99 1023.68 1024.32 1025.38 1025.81 1026.70 1027.27 1028.06 1028.60 1028.74 1028.80 1028.75 1028.86 1029.10 1029.32 1029.45 1029.68 1029.95 1030.16 1030.32 1030.37 1030.47 1030.24 1030.17 1030.09 1030.34 1030.51 1030.74 1031.24 1031.40 1031.36 1031.41 1031.56
1018.66 1018.88 1019.87 1020.58 1021.09 1021.09 1021.17 1021.12 1021.12 1021.17 1021.25 1021.18 1021.23 1021.55 1022.07 1022.21 1022.19 1022.57 1022.90 1023.15 1023.30 1023.66 1024.31 1025.40 1026.13 1026.42 1026.93 1027.49 1027.81 1028.25 1028.68 1028.84 1028.96 1029.07 1029.15 1029.28 1029.59 1029.97 1030.29 1030.53 1030.84 1030.84 1030.56 1030.52 1030.56 1030.70 1030.92 1031.12 1031.16 1031.32 1031.48 1031.59 1031.73 1031.84
1019.94 1020.63 1021.07 1021.68 1021.78 1021.39 1021.39 1021.93 1021.98 1021.85 1022.11 1022.09 1022.46 1022.63 1022.77 1022.80 1023.05 1023.14 1023.50 1023.71 1023.88 1024.03 1024.55 1024.99 1025.62 1026.37 1026.94 1027.26 1027.56 1027.79 1027.91 1028.28 1028.89 1029.15 1029.28 1029.50 1029.93 1030.47 1030.72 1030.93 1031.27 1031.06 1030.84 1030.92 1031.03 1031.17 1031.39 1031.47 1031.59 1031.66 1031.79 1031.94 1032.08 1032.24
1021.18 1021.28 1021.53 1021.74 1021.87 1021.78 1021.87 1022.02 1022.34 1022.63 1022.56 1022.97 1022.96 1023.14 1023.20 1023.14 1023.19 1023.17 1023.41 1023.55 1023.60 1023.59 1024.26 1024.97 1025.60 1026.10 1026.76 1027.28 1027.57 1027.95 1028.39 1028.94 1029.53 1029.38 1030.05 1030.21 1030.51 1030.73 1030.91 1031.08 1031.11 1031.06 1031.05 1031.23 1031.43 1031.52 1031.64 1031.73 1031.91 1032.00 1032.10 1032.26 1032.43 1032.58
Wind_Speed
16 17 17 20 17 15 16 15 15 13 11 12 13 10 10 12 11 6 2 12 6 3 4 5 5 6 3 1 3 3 4 2 3 2 2 1 2 2 3 2 1 1 2 2 3 3 6 10 2 1 6 8 8 10
16 15 14 20 17 16 17 16 15 14 12 13 13 12 11 13 12 7 2 9 6 3 2 2 4 5 9 9 2 1 2 3 1 3 3 4 2 3 4 2 3 1 2 3 3 1 4 7 11 10 9 8 6 9
13 16 17 21 21 19 16 16 15 14 13 13 14 12 13 13 14 8 3 5 2 1 4 4 10 12 9 9 6 5 2 2 3 4 2 3 4 1 2 1 2 1 3 3 3 6 7 10 12 13 12 12 9 10
15 15 18 20 20 19 16 16 15 14 13 14 15 13 14 13 14 6 4 7 3 2 2 5 1 5 4 9 11 12 7 1 2 2 2 3 4 1 2 3 2 3 5 5 3 4 5 12 10 10 11 10 10 10
18 15 15 18 20 20 17 17 14 14 14 15 15 15 14 13 15 5 4 7 6 3 2 4 5 7 5 9 11 9 8 7 3 2 3 4 3 2 2 2 2 3 3 3 2 5 4 6 8 9 10 9 9 8
18 18 16 18 20 18 16 16 14 15 16 16 16 16 15 14 12 5 1 2 7 4 1 3 3 3 5 6 8 8 7 3 3 4 4 3 4 3 1 1 4 5 4 6 2 5 11 10 10 8 8 9 10 11
19 19 17 18 21 18 17 16 16 17 18 16 16 17 18 17 5 3 3 3 14 5 2 3 3 2 3 4 2 3 7 3 3 2 4 2 2 1 1 2 6 6 6 7 8 3 8 9 5 7 8 10 12 11
20 18 19 19 21 18 17 16 18 17 17 16 17 18 17 10 9 2 2 14 11 3 3 2 4 2 6 3 3 4 5 3 4 2 2 2 1 0 2 5 4 5 4 9 10 9 10 8 8 9 8 7 10 10
20 18 18 20 20 18 17 17 18 18 17 17 17 11 4 3 3 4 9 18 2 2 4 3 2 3 2 3 2 3 3 3 1 3 3 2 1 2 3 6 6 8 6 6 4 8 8 9 8 8 8 8 9 8
20 19 19 20 17 17 17 18 18 16 19 15 7 4 3 4 13 17 4 3 2 1 3 4 2 3 3 1 4 4 3 3 4 4 3 2 2 7 7 9 7 7 8 9 6 3 6 6 6 8 9 7 7 6
20 19 19 17 19 19 20 18 20 20 18 5 4 3 2 17 4 2 4 4 4 4 5 4 6 3 3 3 2 2 4 4 4 4 6 3 1 4 7 9 8 8 7 8 7 6 6 6 5 5 7 7 6 7
19 17 18 19 21 16 20 23 25 17 5 9 6 6 2 3 3 5 5 5 6 6 4 5 4 3 2 2 2 3 3 4 3 4 3 4 3 8 7 8 7 6 6 8 8 8 8 7 6 6 6 6 7 7
17 18 19 14 18 22 26 25 21 13 19 8 4 5 3 1 5 9 9 4 4 3 4 4 3 3 2 2 3 3 4 2 4 3 3 2 7 5 6 5 7 7 7 8 9 8 9 10 10 9 8 6 6 7
13 13 16 20 23 22 15 13 22 14 5 4 5 6 1 3 2 3 2 4 2 1 4 3 2 2 1 2 1 2 2 1 3 3 3 3 6 6 6 5 5 6 7 8 7 7 8 8 9 8 6 5 6 7
17 20 19 14 12 20 15 12 10 3 3 5 3 4 1 2 1 1 0 2 3 1 2 3 3 2 3 2 3 1 2 2 3 2 2 4 6 6 5 5 6 6 5 6 5 6 6 7 8 7 6 6 6 6
12 17 7 24 23 18 17 8 4 3 5 4 7 4 1 3 2 3 3 2 3 2 2 3 3 4 3 1 3 2 0 1 2 2 3 5 5 5 6 6 6 5 6 6 5 6 6 6 7 6 6 6 6 6
6 4 18 22 17 18 12 5 4 7 6 5 4 3 3 4 3 2 3 3 3 1 2 1 4 1 2 3 3 3 1 2 3 3 3 5 6 6 6 6 6 6 6 7 7 7 6 5 5 6 8 6 7 7
8 10 15 14 8 7 4 6 5 6 8 5 5 2 2 2 2 2 3 4 2 2 2 3 3 4 3 3 2 2 2 3 4 5 5 6 7 6 6 7 5 6 7 6 5 5 5 5 5 4 5 5 5 5
10 6 9 15 7 6 4 5 4 6 5 3 3 2 3 3 4 4 4 5 4 4 4 3 6 3 2 1 3 3 3 3 4 3 4 4 5 6 6 5 5 5 5 4 4 3 3 3 3 3 3 3 3 3
10 9 11 10 6 5 6 4 3 5 4 2 3 3 3 3 1 3 6 5 4 3 6 5 2 1 2 2 2 4 3 6 6 6 4 3 2 4 4 4 3 4 4 4 3 3 2 3 2 3 3 2 3 3
5 2 7 4 4 6 5 3 5 4 5 4 3 2 3 2 3 4 4 4 5 4 3 2 2 2 4 2 3 5 5 4 3 3 3 3 1 2 3 2 3 3 2 2 2 2 2 2 2 2 3 3 3 4
2 3 3 4 5 5 5 4 5 4 4 4 4 3 3 2 2 3 2 5 4 2 1 2 3 4 5 6 4 3 4 7 5 5 5 5 3 2 2 2 3 2 2 2 2 2 2 2 3 3 4 4 4 4
4 4 5 5 7 6 2 0 4 3 4 4 3 3 2 2 2 2 4 3 2 1 2 3 4 4 8 4 6 7 5 7 6 5 5 5 5 3 3 3 3 3 3 3 2 3 3 3 4 4 4 4 4 4
8 7 6 4 5 3 2 3 3 4 3 3 3 3 2 3 1 3 3 1 1 2 2 4 5 6 5 6 4 3 3 4 6 5 3 4 5 4 4 4 4 4 3 3 3 3 3 3 3 3 3 3 3 3
8 8 5 5 4 5 5 3 3 4 3 2 4 1 2 2 3 2 4 4 4 3 5 4 4 4 5 3 3 3 3 2 5 5 2 2 4 4 3 3 3 3 2 2 2 2 2 1 2 3 3 3 4 4
8 4 4 1 2 4 3 4 3 5 4 3 2 2 2 3 3 3 3 6 4 4 5 5 5 4 3 2 4 3 2 3 4 4 2 1 1 2 2 2 2 1 3 1 3 3 2 2 2 3 3 3 3 3
5 3 2 3 1 4 4 3 3 4 4 5 4 3 3 4 3 3 1 2 4 3 5 5 5 5 5 4 4 3 3 3 4 5 4 3 3 2 1 2 2 1 1 1 2 2 3 3 3 2 3 1 1 2
3 3 4 3 5 3 5 3 3 2 2 1 4 3 6 6 4 3 2 2 4 7 7 5 4 5 5 5 5 6 6 6 7 6 6 6 5 3 4 3 3 4 3 2 3 3 2 4 3 4 3 2 3 1
4 3 3 5 4 5 4 2 2 1 2 2 4 3 3 2 1 0 2 4 6 9 8 7 4 5 6 6 4 2 5 5 5 4 3 1 1 1 2 2 2 2 2 3 4 4 5 3 3 3 3 2 3 3
3 2 5 3 4 2 2 1 0 1 2 2 2 3 2 2 2 0 3 4 6 7 5 6 7 6 6 6 5 2 1 1 0 3 3 3 3 2 2 2 2 2 2 2 3 3 4 4 3 2 2 2 1 2
2 3 5 4 2 2 2 1 1 1 3 3 2 4 2 2 2 2 2 2 5 7 8 7 4 3 6 5 4 4 2 2 3 3 1 2 4 4 3 2 2 1 1 2 2 2 2 2 2 1 2 3 2 2
4 3 4 4 1 2 2 3 1 3 3 3 2 2 3 3 2 1 2 3 4 5 3 7 7 6 4 2 2 1 1 5 5 4 7 5 4 3 3 2 2 2 3 3 3 3 3 3 3 2 3 3 1 1
3 2 3 3 3 2 3 3 4 2 3 2 1 1 2 3 5 4 1 1 2 5 7 5 4 5 6 5 5 5 5 5 6 7 5 6 6 5 3 2 2 2 3 3 3 2 3 3 2 1 2 2 1 2
Wind_Direction
242 238 226 214 221 225 235 236 250 243 248 256 274 273 278 286 292 199 151 179 166 207 257 206 211 219 258 197 264 326 346 38 325 303 296 298 280 338 286 346 287 19 167 218 191 229 261 353 311 105 105 70 62 50
250 236 229 232 223 223 233 232 243 242 245 253 268 269 273 277 281 252 175 181 177 208 274 288 279 250 224 233 143 285 257 355 282 350 1 309 309 314 339 329 26 41 27 320 256 33 49 32 75 63 85 84 51 59
258 250 228 215 223 222 230 236 237 238 246 250 265 269 269 274 276 261 151 131 139 174 260 233 237 240 232 221 206 244 251 209 203 179 335 308 284 283 324 341 312 152 44 250 263 80 69 84 72 72 73 80 66 54
246 258 242 231 224 219 227 234 235 232 244 250 264 269 267 268 271 227 174 153 142 132 254 272 178 247 218 191 198 212 215 68 25 23 328 266 277 231 269 281 298 12 321 318 88 90 91 54 49 68 71 73 72 62
244 244 252 243 222 220 227 231 230 236 242 252 261 269 266 274 267 247 149 177 163 163 251 285 295 247 214 172 191 191 207 220 253 281 247 245 269 270 253 274 56 20 355 356 9 332 71 66 61 63 70 68 59 64
248 242 241 245 224 217 224 237 228 241 245 253 263 269 273 270 260 97 28 174 172 155 228 280 291 303 34 142 156 171 182 165 188 203 224 238 273 256 300 296 66 64 51 13 346 49 90 97 77 72 82 80 73 68
238 240 239 239 218 213 226 232 225 238 247 249 259 266 268 260 170 153 200 180 165 112 168 267 280 263 123 115 113 132 167 182 189 212 235 260 257 98 317 249 92 77 54 29 23 163 77 52 83 83 81 81 78 73
237 236 240 225 217 216 225 227 234 241 248 250 255 265 260 179 129 100 339 140 134 117 197 235 264 315 184 144 145 159 162 175 192 229 241 236 238 193 211 90 64 28 84 43 27 44 84 91 71 57 57 72 74 66
238 236 239 219 217 219 229 229 237 241 248 254 261 238 189 103 140 164 156 156 107 148 185 183 207 235 155 157 142 155 152 166 214 217 225 218 178 235 51 99 67 34 32 350 44 57 63 63 55 49 50 52 65 64
233 235 227 218 220 231 230 236 243 245 252 258 248 159 171 194 142 106 41 146 172 216 220 225 177 244 166 135 174 158 177 186 190 201 121 216 112 90 79 80 69 50 35 13 186 38 30 49 52 51 55 53 54 67
229 226 216 223 233 233 235 238 243 244 250 176 159 142 176 163 93 133 150 169 155 209 210 222 194 168 184 174 230 209 178 179 209 172 189 189 167 108 98 79 60 50 52 57 68 58 51 42 38 60 59 56 62 65
217 216 226 230 235 236 243 243 243 240 192 158 123 107 127 141 137 156 171 170 196 211 185 189 192 202 148 126 183 190 205 180 192 117 140 167 75 102 97 84 72 63 60 57 51 55 51 58 52 67 70 66 64 70
218 226 233 229 239 246 252 247 233 163 146 129 122 134 186 200 152 175 175 172 192 187 174 179 153 136 131 194 236 226 174 176 101 63 86 62 121 105 101 91 75 64 69 70 65 62 63 62 53 64 74 61 77 73
219 230 236 244 252 245 227 147 132 122 75 109 136 116 186 171 219 185 129 138 137 153 134 112 101 124 101 174 348 240 9 201 102 163 136 109 109 95 84 80 88 67 67 73 66 67 71 70 66 60 63 69 79 79
239 243 238 227 215 120 116 112 119 91 77 81 74 90 96 160 71 244 360 93 34 333 107 114 79 64 29 89 12 299 67 79 23 90 113 108 104 102 94 90 91 88 77 72 72 80 81 83 85 78 61 73 84 83
229 193 188 123 114 134 142 115 65 67 64 73 50 105 114 88 35 48 17 80 21 12 71 52 116 74 56 67 55 53 311 130 125 97 113 105 90 92 98 98 99 103 102 101 98 102 100 91 93 90 81 71 68 76
119 64 131 127 121 94 100 89 69 59 67 56 49 41 76 82 94 74 9 360 317 80 102 124 72 73 98 70 87 11 97 117 139 104 83 105 118 119 114 110 115 120 116 109 108 106 105 108 109 99 87 84 90 89
88 126 106 104 95 63 42 43 76 68 66 43 75 350 57 50 52 31 354 347 1 74 56 85 98 69 85 123 173 163 124 111 106 111 108 112 119 118 118 114 110 116 113 110 109 106 108 104 95 90 99 97 89 81
121 134 69 62 85 93 72 39 52 86 76 100 116 69 63 74 38 21 17 15 49 58 92 60 71 77 129 148 138 151 149 133 126 96 86 85 109 121 123 125 130 121 120 125 129 122 124 113 121 129 125 123 102 101
107 68 54 46 54 82 78 53 59 79 88 101 65 57 72 58 28 16 27 20 42 52 51 50 84 137 115 132 143 137 124 125 121 111 93 79 93 122 128 131 123 129 129 134 142 160 166 155 166 150 144 131 112 105
86 71 55 72 56 65 83 94 66 89 115 80 134 86 83 58 44 26 29 2 58 38 79 71 87 78 68 77 103 113 114 128 134 131 141 130 131 133 131 135 147 147 136 130 122 102 96 85 72 80 89 88 95 103
56 76 80 28 77 67 73 18 107 124 82 124 149 100 81 63 38 34 30 46 59 44 61 114 120 118 103 88 82 87 121 105 96 96 86 110 123 121 121 131 139 125 125 140 133 128 103 86 81 87 105 108 105 103
54 47 46 47 72 60 105 40 84 96 101 123 101 87 61 71 78 84 72 71 86 58 89 95 97 93 105 105 94 79 74 105 99 98 100 96 92 90 96 84 104 120 114 78 85 119 111 104 104 114 116 117 115 103
35 50 50 61 69 108 29 35 69 83 79 79 88 107 115 141 109 63 95 119 143 126 103 125 126 109 92 79 77 80 70 103 103 87 76 112 105 81 76 79 73 65 67 98 80 88 93 103 118 119 124 125 125 127
71 352 61 24 4 77 71 36 27 69 101 136 101 122 183 120 92 97 157 157 159 138 148 135 112 105 116 108 107 93 51 129 126 114 37 110 118 116 98 81 73 54 37 119 109 101 97 136 140 148 157 163 165 161
75 314 64 158 338 99 166 109 151 151 122 96 150 82 70 104 98 177 195 169 156 155 161 155 139 128 118 124 139 147 140 129 114 102 83 60 115 137 153 146 137 82 23 40 134 136 127 123 156 165 165 173 182 163
81 349 19 35 8 91 66 46 71 99 112 157 173 123 105 107 190 232 146 191 139 160 153 157 154 147 145 137 105 90 90 72 83 103 105 78 58 34 147 160 170 112 30 153 175 168 159 160 146 146 139 146 199 190
126 33 106 324 53 20 115 75 77 110 185 155 99 105 147 167 174 177 162 143 125 112 97 80 69 100 114 117 121 117 90 96 95 98 100 81 63 62 68 70 67 94 85 77 113 140 144 152 151 156 164 145 135 146
44 344 78 41 39 43 42 97 148 43 15 107 114 152 167 62 358 162 132 135 127 121 117 113 71 90 85 79 60 85 135 143 124 109 103 128 329 180 60 83 87 76 67 87 84 94 113 126 149 156 149 147 117 123
350 16 86 61 72 28 270 147 220 278 13 72 86 100 76 39 18 314 122 129 138 141 133 133 141 139 142 137 134 120 125 189 120 136 160 202 222 153 143 116 121 107 97 95 90 79 53 68 91 92 98 112 131 152
0 67 72 65 105 256 233 352 2 98 40 46 353 93 101 102 89 50 77 95 117 121 119 126 118 143 136 145 152 148 206 206 210 209 192 132 134 134 127 116 100 128 109 105 98 91 91 62 44 71 122 125 109 111
28 81 119 110 211 272 61 56 45 73 1 52 6 35 30 57 114 260 161 114 121 130 135 146 148 181 184 130 132 123 140 123 145 149 141 135 126 119 118 109 118 125 111 105 99 98 83 93 92 86 103 111 102 69
59 61 57 86 53 16 297 85 25 55 34 64 357 156 181 152 174 200 148 234 199 167 163 153 111 121 141 144 137 125 111 111 125 122 116 114 118 123 115 100 94 88 103 109 106 105 113 116 117 141 159 180 210 269